| time (UTC) | temp F | wind direction | speed knots | gust knots | rain 1hr in | rain 24hr in | rain mn in | humidity % | barometer mb |
| 20260903132424 | 73 | 265 | 7.0 | 8.7 | 0.00 | 0.00 | 0.00 | 48 | 1020.0 |
| 20260903131923 | 73 | 261 | 9.6 | 13.9 | 0.00 | 0.00 | 0.00 | 46 | 1019.8 |
| 20260903131422 | 73 | 267 | 6.1 | 7.8 | 0.00 | 0.00 | 0.00 | 48 | 1019.7 |
| 20260903130920 | 73 | 277 | 9.6 | 12.2 | 0.00 | 0.00 | 0.00 | 47 | 1019.7 |
| 20260903130419 | 74 | 280 | 10.4 | 13.9 | 0.00 | 0.00 | 0.00 | 47 | 1019.8 |
| 20260903125918 | 75 | 291 | 7.8 | 12.2 | 0.00 | 0.00 | 0.00 | 46 | 1019.9 |
| 20260903125417 | 75 | 272 | 8.7 | 10.4 | 0.00 | 0.00 | 0.00 | 45 | 1020.0 |
| 20260903124915 | 75 | 273 | 8.7 | 14.8 | 0.00 | 0.00 | 0.00 | 45 | 1019.8 |
| 20260903124414 | 75 | 289 | 5.2 | 7.8 | 0.00 | 0.00 | 0.00 | 50 | 1019.9 |
| 20260903123913 | 75 | 277 | 7.8 | 12.2 | 0.00 | 0.00 | 0.00 | 47 | 1019.9 |
| 20260903123412 | 74 | 277 | 7.8 | 9.6 | 0.00 | 0.00 | 0.00 | 47 | 1019.9 |
| 20260903122911 | 73 | 273 | 8.7 | 12.2 | 0.00 | 0.00 | 0.00 | 47 | 1019.9 |
| 20260903122409 | 73 | 268 | 10.4 | 13.9 | 0.00 | 0.00 | 0.00 | 47 | 1019.9 |
| 20260903121908 | 73 | 318 | 7.0 | 12.2 | 0.00 | 0.00 | 0.00 | 47 | 1019.8 |
| 20260903121407 | 73 | 282 | 11.3 | 14.8 | 0.00 | 0.00 | 0.00 | 47 | 1020.1 |
| 20260903120906 | 73 | 280 | 10.4 | 13.0 | 0.00 | 0.00 | 0.00 | 48 | 1019.9 |
| 20260903120405 | 73 | 273 | 10.4 | 13.0 | 0.00 | 0.00 | 0.00 | 47 | 1020.0 |
| 20260903115904 | 73 | 280 | 7.8 | 13.0 | 0.00 | 0.00 | 0.00 | 48 | 1020.0 |
| 20260903115403 | 72 | 275 | 13.0 | 15.6 | 0.00 | 0.00 | 0.00 | 47 | 1020.2 |
| 20260903114901 | 72 | 268 | 11.3 | 13.0 | 0.00 | 0.00 | 0.00 | 48 | 1020.1 |
| 20260903114400 | 72 | 270 | 11.3 | 14.8 | 0.00 | 0.00 | 0.00 | 49 | 1020.3 |
| 20260903113859 | 72 | 284 | 13.0 | 16.5 | 0.00 | 0.00 | 0.00 | 48 | 1020.4 |
| 20260903113358 | 72 | 282 | 9.6 | 12.2 | 0.00 | 0.00 | 0.00 | 48 | 1020.4 |
| 20260903112857 | 72 | 296 | 7.8 | 12.2 | 0.00 | 0.00 | 0.00 | 53 | 1020.6 |
| 20260903112356 | 73 | 283 | 9.6 | 13.0 | 0.00 | 0.00 | 0.00 | 49 | 1020.4 |
| 20260903111855 | 73 | 303 | 7.0 | 11.3 | 0.00 | 0.00 | 0.00 | 52 | 1020.5 |
| 20260903111353 | 73 | 272 | 10.4 | 14.8 | 0.00 | 0.00 | 0.00 | 48 | 1020.6 |
| 20260903110852 | 74 | 280 | 10.4 | 14.8 | 0.00 | 0.00 | 0.00 | 48 | 1020.6 |
| 20260903110351 | 74 | 282 | 6.1 | 10.4 | 0.00 | 0.00 | 0.00 | 55 | 1020.9 |
| 20260903105850 | 74 | 293 | 7.0 | 9.6 | 0.00 | 0.00 | 0.00 | 51 | 1020.9 |
| 20260903105349 | 74 | 273 | 11.3 | 15.6 | 0.00 | 0.00 | 0.00 | 48 | 1020.9 |
| 20260903104847 | 73 | 277 | 9.6 | 18.2 | 0.00 | 0.00 | 0.00 | 49 | 1021.0 |
| 20260903104346 | 73 | 270 | 10.4 | 16.5 | 0.00 | 0.00 | 0.00 | 50 | 1021.0 |
| 20260903103845 | 73 | 248 | 6.1 | 8.7 | 0.00 | 0.00 | 0.00 | 53 | 1021.2 |
| 20260903103344 | 73 | 282 | 8.7 | 11.3 | 0.00 | 0.00 | 0.00 | 53 | 1021.3 |
| 20260903102842 | 73 | 293 | 7.8 | 12.2 | 0.00 | 0.00 | 0.00 | 51 | 1021.1 |
| 20260903102341 | 73 | 308 | 6.1 | 9.6 | 0.00 | 0.00 | 0.00 | 56 | 1021.1 |
| 20260903101840 | 73 | 286 | 7.0 | 10.4 | 0.00 | 0.00 | 0.00 | 54 | 1021.2 |
| 20260903101339 | 72 | 296 | 6.1 | 8.7 | 0.00 | 0.00 | 0.00 | 55 | 1021.3 |
| 20260903100838 | 72 | 272 | 9.6 | 13.0 | 0.00 | 0.00 | 0.00 | 53 | 1021.3 |
| 20260903100337 | 72 | 292 | 8.7 | 13.0 | 0.00 | 0.00 | 0.00 | 54 | 1021.4 |
| 20260903095836 | 72 | 284 | 10.4 | 14.8 | 0.00 | 0.00 | 0.00 | 52 | 1021.4 |
| 20260903095334 | 72 | 267 | 9.6 | 13.9 | 0.00 | 0.00 | 0.00 | 54 | 1021.4 |
| 20260903094833 | 72 | 268 | 9.6 | 13.9 | 0.00 | 0.00 | 0.00 | 55 | 1021.5 |
| 20260903094332 | 71 | 265 | 9.6 | 11.3 | 0.00 | 0.00 | 0.00 | 58 | 1021.5 |
| 20260903093831 | 71 | 260 | 7.8 | 10.4 | 0.00 | 0.00 | 0.00 | 57 | 1021.5 |
| 20260903093330 | 71 | 267 | 11.3 | 14.8 | 0.00 | 0.00 | 0.00 | 55 | 1021.5 |
| 20260903092829 | 71 | 288 | 10.4 | 14.8 | 0.00 | 0.00 | 0.00 | 58 | 1021.4 |
| 20260903092328 | 71 | 306 | 8.7 | 15.6 | 0.00 | 0.00 | 0.00 | 57 | 1021.3 |
| 20260903091827 | 70 | 282 | 8.7 | 12.2 | 0.00 | 0.00 | 0.00 | 64 | 1021.6 |
| 20260903091326 | 69 | 267 | 9.6 | 11.3 | 0.00 | 0.00 | 0.00 | 63 | 1021.6 |
| 20260903090825 | 69 | 284 | 6.1 | 10.4 | 0.00 | 0.00 | 0.00 | 71 | 1021.5 |
| 20260903090324 | 70 | 315 | 3.5 | 6.1 | 0.00 | 0.00 | 0.00 | 100 | 1021.6 |
| 20260903085822 | 70 | 303 | 3.5 | 5.2 | 0.00 | 0.00 | 0.00 | 93 | 1021.6 |
| 20260903085321 | 70 | 244 | 4.3 | 5.2 | 0.00 | 0.00 | 0.00 | 100 | 1021.7 |
| 20260903084820 | 69 | 266 | 5.2 | 6.1 | 0.00 | 0.00 | 0.00 | 89 | 1021.8 |
| 20260903084319 | 68 | 246 | 5.2 | 7.0 | 0.00 | 0.00 | 0.00 | 98 | 1021.8 |
| 20260903083818 | 67 | 254 | 5.2 | 7.0 | 0.00 | 0.00 | 0.00 | 98 | 1021.8 |
| 20260903083317 | 68 | 273 | 5.2 | 7.0 | 0.00 | 0.00 | 0.00 | 89 | 1021.9 |
| 20260903082816 | 68 | 255 | 5.2 | 7.8 | 0.00 | 0.00 | 0.00 | 91 | 1021.8 |
| 20260903082315 | 68 | 258 | 5.2 | 7.8 | 0.00 | 0.00 | 0.00 | 100 | 1021.9 |
| 20260903081814 | 68 | 258 | 4.3 | 7.8 | 0.00 | 0.00 | 0.00 | 100 | 1021.8 |
| 20260903081313 | 68 | 232 | 4.3 | 5.2 | 0.00 | 0.00 | 0.00 | 100 | 1021.9 |
| 20260903080812 | 68 | 265 | 3.5 | 5.2 | 0.00 | 0.00 | 0.00 | 100 | 1022.0 |
| 20260903080310 | 68 | 249 | 4.3 | 5.2 | 0.00 | 0.00 | 0.00 | 100 | 1022.0 |
| 20260903075809 | 68 | 244 | 3.5 | 5.2 | 0.00 | 0.00 | 0.00 | 100 | 1021.9 |
| 20260903075308 | 67 | 232 | 2.6 | 3.5 | 0.00 | 0.00 | 0.00 | 100 | 1022.0 |
| 20260903074807 | 66 | 237 | 3.5 | 4.3 | 0.00 | 0.00 | 0.00 | 100 | 1022.0 |
| 20260903074306 | 66 | 227 | 3.5 | 5.2 | 0.00 | 0.00 | 0.00 | 100 | 1021.9 |
| 20260903073805 | 65 | 235 | 2.6 | 4.3 | 0.00 | 0.00 | 0.00 | 100 | 1022.0 |
| 20260903073305 | 64 | 242 | 3.5 | 5.2 | 0.00 | 0.00 | 0.00 | 100 | 1022.0 |
| 20260903072804 | 64 | 237 | 4.3 | 6.1 | 0.00 | 0.00 | 0.00 | 100 | 1022.0 |
| 20260903072306 | 63 | 244 | 6.1 | 7.0 | 0.00 | 0.00 | 0.00 | 100 | 1022.0 |
| 20260903071802 | 63 | 235 | 4.3 | 5.2 | 0.00 | 0.00 | 0.00 | 100 | 1022.0 |
| 20260903071301 | 63 | 235 | 4.3 | 5.2 | 0.00 | 0.00 | 0.00 | 100 | 1022.0 |
| 20260903070800 | 62 | 239 | 5.2 | 6.1 | 0.00 | 0.00 | 0.00 | 100 | 1022.0 |
| 20260903070300 | 61 | 227 | 4.3 | 5.2 | 0.00 | 0.00 | 0.00 | 100 | 1022.1 |
| 20260903065759 | 61 | 237 | 4.3 | 5.2 | 0.00 | 0.00 | 0.00 | 100 | 1022.0 |
| 20260903065258 | 61 | 232 | 3.5 | 4.3 | 0.00 | 0.00 | 0.00 | 100 | 1022.0 |
| 20260903064758 | 60 | 225 | 4.3 | 5.2 | 0.00 | 0.00 | 0.00 | 100 | 1022.0 |
| 20260903064257 | 60 | 228 | 4.3 | 5.2 | 0.00 | 0.00 | 0.00 | 100 | 1021.9 |
| 20260903063756 | 60 | 249 | 4.3 | 6.1 | 0.00 | 0.00 | 0.00 | 100 | 1021.8 |
| 20260903063256 | 59 | 228 | 5.2 | 6.1 | 0.00 | 0.00 | 0.00 | 100 | 1021.8 |
| 20260903062755 | 59 | 225 | 5.2 | 7.8 | 0.00 | 0.00 | 0.00 | 100 | 1021.8 |
| 20260903062255 | 59 | 228 | 5.2 | 7.8 | 0.00 | 0.00 | 0.00 | 100 | 1021.8 |
| 20260903061755 | 59 | 225 | 4.3 | 6.1 | 0.00 | 0.00 | 0.00 | 100 | 1021.8 |
| 20260903061254 | 59 | 225 | 6.1 | 8.7 | 0.00 | 0.00 | 0.00 | 100 | 1021.8 |
| 20260903060754 | 58 | 228 | 4.3 | 5.2 | 0.00 | 0.00 | 0.00 | 100 | 1021.8 |
| 20260903060253 | 58 | 235 | 4.3 | 5.2 | 0.00 | 0.00 | 0.00 | 100 | 1021.7 |
| 20260903055753 | 58 | 249 | 5.2 | 7.0 | 0.00 | 0.00 | 0.00 | 100 | 1021.7 |
| 20260903055253 | 58 | 239 | 4.3 | 6.1 | 0.00 | 0.00 | 0.00 | 100 | 1021.6 |
| 20260903054752 | 57 | 240 | 6.1 | 11.3 | 0.00 | 0.00 | 0.00 | 100 | 1021.6 |
| 20260903054252 | 57 | 227 | 5.2 | 10.4 | 0.00 | 0.00 | 0.00 | 100 | 1021.6 |
| 20260903053751 | 57 | 235 | 6.1 | 7.8 | 0.00 | 0.00 | 0.00 | 100 | 1021.6 |
| 20260903053251 | 57 | 235 | 4.3 | 6.1 | 0.00 | 0.00 | 0.00 | 100 | 1021.6 |
| 20260903052751 | 57 | 239 | 5.2 | 12.2 | 0.00 | 0.00 | 0.00 | 100 | 1021.6 |
| 20260903052250 | 57 | 225 | 5.2 | 6.1 | 0.00 | 0.00 | 0.00 | 100 | 1021.5 |
| 20260903051750 | 57 | 235 | 6.1 | 11.3 | 0.00 | 0.00 | 0.00 | 100 | 1021.5 |
| 20260903051250 | 57 | 225 | 5.2 | 6.1 | 0.00 | 0.00 | 0.00 | 100 | 1021.4 |
| 20260903050749 | 57 | 232 | 6.1 | 7.0 | 0.00 | 0.00 | 0.00 | 100 | 1021.4 |
| 20260903050249 | 57 | 232 | 6.1 | 7.0 | 0.00 | 0.00 | 0.00 | 100 | 1021.4 |
| 20260903045749 | 57 | 225 | 6.1 | 7.0 | 0.00 | 0.00 | 0.00 | 100 | 1021.5 |
| 20260903045248 | 56 | 235 | 6.1 | 7.0 | 0.00 | 0.00 | 0.00 | 100 | 1021.5 |
| 20260903044748 | 56 | 234 | 6.1 | 7.0 | 0.00 | 0.00 | 0.00 | 100 | 1021.5 |
| 20260903044248 | 56 | 235 | 5.2 | 7.0 | 0.00 | 0.00 | 0.00 | 100 | 1021.4 |
| 20260903043747 | 57 | 234 | 5.2 | 7.0 | 0.00 | 0.00 | 0.00 | 100 | 1021.5 |
| 20260903043247 | 57 | 253 | 6.1 | 7.0 | 0.00 | 0.00 | 0.00 | 100 | 1021.4 |
| 20260903042747 | 57 | 237 | 7.0 | 7.8 | 0.00 | 0.00 | 0.00 | 100 | 1021.4 |
| 20260903042247 | 57 | 228 | 6.1 | 7.0 | 0.00 | 0.00 | 0.00 | 100 | 1021.4 |
| 20260903041746 | 57 | 230 | 5.2 | 6.1 | 0.00 | 0.00 | 0.00 | 100 | 1021.3 |
| 20260903041246 | 57 | 228 | 4.3 | 5.2 | 0.00 | 0.00 | 0.00 | 100 | 1021.3 |
| 20260903040746 | 57 | 237 | 4.3 | 5.2 | 0.00 | 0.00 | 0.00 | 100 | 1021.4 |
| 20260903040245 | 57 | 246 | 4.3 | 5.2 | 0.00 | 0.00 | 0.00 | 100 | 1021.3 |
| 20260903035745 | 57 | 234 | 5.2 | 6.1 | 0.00 | 0.00 | 0.00 | 100 | 1021.3 |
| 20260903035245 | 57 | 232 | 5.2 | 6.1 | 0.00 | 0.00 | 0.00 | 100 | 1021.2 |
| 20260903034744 | 57 | 232 | 5.2 | 6.1 | 0.00 | 0.00 | 0.00 | 100 | 1021.3 |
| 20260903034244 | 57 | 225 | 6.1 | 7.0 | 0.00 | 0.00 | 0.00 | 100 | 1021.3 |
| 20260903033744 | 57 | 228 | 5.2 | 6.1 | 0.00 | 0.00 | 0.00 | 100 | 1021.2 |
| 20260903033243 | 57 | 228 | 6.1 | 6.1 | 0.00 | 0.00 | 0.00 | 100 | 1021.3 |
| 20260903032743 | 57 | 228 | 4.3 | 7.0 | 0.00 | 0.00 | 0.00 | 100 | 1021.3 |
| 20260903032243 | 57 | 222 | 5.2 | 7.0 | 0.00 | 0.00 | 0.00 | 100 | 1021.3 |
| 20260903031742 | 57 | 235 | 4.3 | 5.2 | 0.00 | 0.00 | 0.00 | 100 | 1021.3 |
| 20260903031242 | 57 | 228 | 5.2 | 6.1 | 0.00 | 0.00 | 0.00 | 100 | 1021.3 |
| 20260903030742 | 57 | 223 | 4.3 | 6.1 | 0.00 | 0.00 | 0.00 | 100 | 1021.3 |
| 20260903030241 | 57 | 227 | 4.3 | 5.2 | 0.00 | 0.00 | 0.00 | 100 | 1021.3 |
| 20260903025741 | 57 | 228 | 4.3 | 5.2 | 0.00 | 0.00 | 0.00 | 100 | 1021.3 |
| 20260903025241 | 57 | 225 | 5.2 | 6.1 | 0.00 | 0.00 | 0.00 | 100 | 1021.3 |
| 20260903024740 | 57 | 222 | 5.2 | 5.2 | 0.00 | 0.00 | 0.00 | 100 | 1021.2 |
| 20260903024240 | 57 | 225 | 5.2 | 6.1 | 0.00 | 0.00 | 0.00 | 100 | 1021.2 |
| 20260903023740 | 57 | 225 | 5.2 | 6.1 | 0.00 | 0.00 | 0.00 | 100 | 1021.2 |
| 20260903023240 | 57 | 220 | 5.2 | 7.0 | 0.00 | 0.00 | 0.00 | 100 | 1021.1 |
| 20260903022739 | 57 | 220 | 4.3 | 5.2 | 0.00 | 0.00 | 0.00 | 100 | 1021.1 |
| 20260903022239 | 57 | 208 | 3.5 | 5.2 | 0.00 | 0.00 | 0.00 | 100 | 1021.1 |
| 20260903021739 | 57 | 215 | 4.3 | 5.2 | 0.00 | 0.00 | 0.00 | 100 | 1021.1 |
| 20260903021238 | 57 | 222 | 5.2 | 6.1 | 0.00 | 0.00 | 0.00 | 100 | 1021.1 |
| 20260903020738 | 57 | 225 | 5.2 | 6.1 | 0.00 | 0.00 | 0.00 | 100 | 1021.1 |
| 20260903020238 | 57 | 232 | 5.2 | 7.0 | 0.00 | 0.00 | 0.00 | 100 | 1021.1 |
| 20260903015737 | 57 | 225 | 5.2 | 6.1 | 0.00 | 0.00 | 0.00 | 100 | 1021.1 |
| 20260903015237 | 57 | 225 | 5.2 | 7.0 | 0.00 | 0.00 | 0.00 | 100 | 1021.1 |
| 20260903014737 | 57 | 225 | 5.2 | 7.0 | 0.00 | 0.00 | 0.00 | 100 | 1021.1 |
| 20260903014236 | 57 | 232 | 5.2 | 7.0 | 0.00 | 0.00 | 0.00 | 100 | 1021.1 |
| 20260903013736 | 57 | 237 | 6.1 | 7.0 | 0.00 | 0.00 | 0.00 | 100 | 1021.1 |
| 20260903013236 | 57 | 233 | 6.1 | 7.8 | 0.00 | 0.00 | 0.00 | 100 | 1021.1 |
| 20260903012736 | 57 | 235 | 5.2 | 7.0 | 0.00 | 0.00 | 0.00 | 100 | 1021.2 |
| 20260903012235 | 57 | 225 | 6.1 | 7.0 | 0.00 | 0.00 | 0.00 | 100 | 1021.3 |
| 20260903011735 | 57 | 227 | 5.2 | 6.1 | 0.00 | 0.00 | 0.00 | 100 | 1021.3 |
| 20260903011235 | 57 | 223 | 4.3 | 6.1 | 0.00 | 0.00 | 0.00 | 100 | 1021.3 |
| 20260903010734 | 57 | 232 | 5.2 | 7.0 | 0.00 | 0.00 | 0.00 | 100 | 1021.3 |
| 20260903010234 | 57 | 234 | 6.1 | 6.1 | 0.00 | 0.00 | 0.00 | 100 | 1021.2 |
| 20260903005733 | 57 | 239 | 6.1 | 7.8 | 0.00 | 0.00 | 0.00 | 100 | 1021.3 |
| 20260903005233 | 57 | 230 | 6.1 | 7.8 | 0.00 | 0.00 | 0.00 | 100 | 1021.3 |
| 20260903004733 | 57 | 225 | 5.2 | 7.0 | 0.00 | 0.00 | 0.00 | 100 | 1021.2 |
| 20260903004233 | 57 | 232 | 5.2 | 6.1 | 0.00 | 0.00 | 0.00 | 100 | 1021.2 |
| 20260903003732 | 57 | 222 | 5.2 | 7.0 | 0.00 | 0.00 | 0.00 | 100 | 1021.2 |
| 20260903003232 | 57 | 230 | 6.1 | 7.8 | 0.00 | 0.00 | 0.00 | 100 | 1021.2 |
| 20260903002732 | 57 | 230 | 6.1 | 7.0 | 0.00 | 0.00 | 0.00 | 100 | 1021.1 |
| 20260903002231 | 57 | 227 | 5.2 | 7.0 | 0.00 | 0.00 | 0.00 | 100 | 1021.1 |
| 20260903001731 | 57 | 233 | 6.1 | 7.8 | 0.00 | 0.00 | 0.00 | 100 | 1021.1 |
| 20260903001231 | 57 | 225 | 5.2 | 7.0 | 0.00 | 0.00 | 0.00 | 100 | 1021.1 |
| 20260903000730 | 57 | 228 | 6.1 | 8.7 | 0.00 | 0.00 | 0.00 | 100 | 1021.2 |
| 20260903000230 | 57 | 237 | 5.2 | 7.0 | 0.00 | 0.00 | 0.00 | 100 | 1021.1 |
| 20260902235730 | 58 | 230 | 5.2 | 7.0 | 0.00 | 0.00 | 0.00 | 100 | 1021.2 |
| 20260902235229 | 58 | 235 | 6.1 | 7.8 | 0.00 | 0.00 | 0.00 | 100 | 1021.1 |
| 20260902234729 | 58 | 232 | 6.1 | 7.8 | 0.00 | 0.00 | 0.00 | 100 | 1021.1 |
| 20260902234228 | 58 | 230 | 6.1 | 7.8 | 0.00 | 0.00 | 0.00 | 100 | 1021.1 |
| 20260902233728 | 58 | 227 | 6.1 | 7.8 | 0.00 | 0.00 | 0.00 | 100 | 1021.2 |
| 20260902233228 | 58 | 222 | 6.1 | 7.0 | 0.00 | 0.00 | 0.00 | 100 | 1021.1 |
| 20260902232727 | 57 | 228 | 4.3 | 5.2 | 0.00 | 0.00 | 0.00 | 100 | 1021.1 |
| 20260902232227 | 57 | 222 | 5.2 | 6.1 | 0.00 | 0.00 | 0.00 | 100 | 1021.1 |
| 20260902231727 | 58 | 228 | 6.1 | 7.0 | 0.00 | 0.00 | 0.00 | 100 | 1021.1 |
| 20260902231226 | 58 | 235 | 5.2 | 7.0 | 0.00 | 0.00 | 0.00 | 100 | 1021.1 |
| 20260902230726 | 58 | 228 | 5.2 | 7.0 | 0.00 | 0.00 | 0.00 | 100 | 1021.2 |
| 20260902230226 | 58 | 228 | 6.1 | 7.8 | 0.00 | 0.00 | 0.00 | 100 | 1021.1 |
| 20260902225725 | 58 | 228 | 6.1 | 7.8 | 0.00 | 0.00 | 0.00 | 100 | 1021.2 |
| 20260902225225 | 58 | 218 | 6.1 | 7.8 | 0.00 | 0.00 | 0.00 | 100 | 1021.2 |
| 20260902224724 | 58 | 225 | 5.2 | 7.0 | 0.00 | 0.00 | 0.00 | 100 | 1021.2 |
| 20260902224224 | 58 | 225 | 4.3 | 5.2 | 0.00 | 0.00 | 0.00 | 100 | 1021.2 |
| 20260902223724 | 58 | 234 | 5.2 | 7.0 | 0.00 | 0.00 | 0.00 | 100 | 1021.2 |
| 20260902223223 | 59 | 230 | 5.2 | 6.1 | 0.00 | 0.00 | 0.00 | 100 | 1021.2 |
| 20260902222723 | 59 | 224 | 4.3 | 5.2 | 0.00 | 0.00 | 0.00 | 100 | 1021.2 |
| 20260902222222 | 59 | 227 | 4.3 | 5.2 | 0.00 | 0.00 | 0.00 | 100 | 1021.2 |
| 20260902221722 | 59 | 232 | 5.2 | 7.8 | 0.00 | 0.00 | 0.00 | 100 | 1021.2 |
| 20260902221221 | 59 | 222 | 7.8 | 12.2 | 0.00 | 0.00 | 0.00 | 100 | 1021.2 |
| 20260902220721 | 59 | 225 | 7.0 | 12.2 | 0.00 | 0.00 | 0.00 | 100 | 1021.2 |
| 20260902220221 | 59 | 227 | 7.0 | 11.3 | 0.00 | 0.00 | 0.00 | 100 | 1021.2 |
| 20260902215720 | 59 | 223 | 5.2 | 6.1 | 0.00 | 0.00 | 0.00 | 100 | 1021.1 |
| 20260902215220 | 59 | 222 | 5.2 | 7.0 | 0.00 | 0.00 | 0.00 | 100 | 1021.1 |
| 20260902214719 | 59 | 225 | 6.1 | 7.8 | 0.00 | 0.00 | 0.00 | 100 | 1021.2 |
| 20260902214219 | 59 | 222 | 5.2 | 6.1 | 0.00 | 0.00 | 0.00 | 100 | 1021.1 |
| 20260902213718 | 59 | 222 | 4.3 | 7.8 | 0.00 | 0.00 | 0.00 | 100 | 1021.2 |
| 20260902213218 | 59 | 228 | 5.2 | 7.8 | 0.00 | 0.00 | 0.00 | 100 | 1021.1 |
| 20260902212717 | 60 | 225 | 5.2 | 7.8 | 0.00 | 0.00 | 0.00 | 100 | 1021.0 |
| 20260902212217 | 60 | 222 | 5.2 | 6.1 | 0.00 | 0.00 | 0.00 | 100 | 1021.1 |
| 20260902211717 | 60 | 225 | 4.3 | 6.1 | 0.00 | 0.00 | 0.00 | 100 | 1021.0 |
| 20260902211216 | 59 | 228 | 6.1 | 7.0 | 0.00 | 0.00 | 0.00 | 100 | 1021.1 |
| 20260902210716 | 59 | 222 | 4.3 | 5.2 | 0.00 | 0.00 | 0.00 | 100 | 1021.1 |
| 20260902210215 | 59 | 225 | 3.5 | 4.3 | 0.00 | 0.00 | 0.00 | 100 | 1021.0 |
| 20260902205715 | 59 | 232 | 4.3 | 6.1 | 0.00 | 0.00 | 0.00 | 100 | 1021.0 |
| 20260902205214 | 60 | 225 | 4.3 | 7.8 | 0.00 | 0.00 | 0.00 | 100 | 1021.0 |
| 20260902204714 | 60 | 230 | 4.3 | 7.8 | 0.00 | 0.00 | 0.00 | 100 | 1021.0 |
| 20260902204213 | 60 | 249 | 4.3 | 5.2 | 0.00 | 0.00 | 0.00 | 100 | 1021.0 |
| 20260902203713 | 60 | 265 | 3.5 | 5.2 | 0.00 | 0.00 | 0.00 | 100 | 1020.9 |
| 20260902203212 | 60 | 250 | 3.5 | 6.1 | 0.00 | 0.00 | 0.00 | 100 | 1020.9 |
| 20260902202712 | 60 | 215 | 6.1 | 9.6 | 0.00 | 0.00 | 0.00 | 100 | 1020.8 |
| 20260902202211 | 59 | 239 | 8.7 | 11.3 | 0.00 | 0.00 | 0.00 | 100 | 1021.1 |
| 20260902201711 | 60 | 242 | 6.1 | 8.7 | 0.00 | 0.00 | 0.00 | 100 | 1021.2 |
| 20260902201210 | 60 | 251 | 6.1 | 7.8 | 0.00 | 0.00 | 0.00 | 100 | 1021.2 |
| 20260902200710 | 61 | 246 | 8.7 | 16.5 | 0.00 | 0.00 | 0.00 | 100 | 1021.2 |
| 20260902200209 | 63 | 252 | 6.1 | 7.0 | 0.00 | 0.00 | 0.00 | 100 | 1020.9 |
| 20260902195708 | 63 | 254 | 6.1 | 6.1 | 0.00 | 0.00 | 0.00 | 100 | 1020.7 |
| 20260902195208 | 63 | 249 | 5.2 | 6.1 | 0.00 | 0.00 | 0.00 | 100 | 1020.7 |
| 20260902194707 | 62 | 268 | 4.3 | 6.1 | 0.00 | 0.00 | 0.00 | 100 | 1020.7 |
| 20260902194207 | 61 | 268 | 5.2 | 7.8 | 0.00 | 0.00 | 0.00 | 100 | 1020.7 |
| 20260902193706 | 61 | 291 | 3.5 | 4.3 | 0.00 | 0.00 | 0.00 | 100 | 1020.7 |
| 20260902193206 | 60 | 346 | 3.5 | 5.2 | 0.00 | 0.00 | 0.00 | 100 | 1020.8 |
| 20260902192705 | 61 | 2 | 1.7 | 4.3 | 0.00 | 0.00 | 0.00 | 100 | 1020.7 |
| 20260902192205 | 62 | 230 | 5.2 | 5.2 | 0.00 | 0.00 | 0.00 | 100 | 1020.5 |
| 20260902191704 | 62 | 227 | 5.2 | 6.1 | 0.00 | 0.00 | 0.00 | 100 | 1020.5 |
| 20260902191203 | 62 | 230 | 6.1 | 6.1 | 0.00 | 0.00 | 0.00 | 100 | 1020.5 |
| 20260902190703 | 62 | 228 | 5.2 | 6.1 | 0.00 | 0.00 | 0.00 | 100 | 1020.4 |
| 20260902190202 | 62 | 225 | 5.2 | 6.1 | 0.00 | 0.00 | 0.00 | 100 | 1020.4 |
| 20260902185702 | 61 | 225 | 4.3 | 5.2 | 0.00 | 0.00 | 0.00 | 100 | 1020.4 |
| 20260902185203 | 61 | 210 | 3.5 | 5.2 | 0.00 | 0.00 | 0.00 | 100 | 1020.4 |
| 20260902184701 | 60 | 281 | 0.9 | 2.6 | 0.00 | 0.00 | 0.00 | 100 | 1020.3 |
| 20260902184200 | 60 | 227 | 3.5 | 7.0 | 0.00 | 0.00 | 0.00 | 100 | 1020.3 |
| 20260902183700 | 60 | 301 | 1.7 | 4.3 | 0.00 | 0.00 | 0.00 | 100 | 1020.3 |
| 20260902183159 | 60 | 317 | 4.3 | 7.8 | 0.00 | 0.00 | 0.00 | 100 | 1020.4 |
| 20260902182659 | 60 | 312 | 7.8 | 12.2 | 0.00 | 0.00 | 0.00 | 100 | 1020.4 |
| 20260902182158 | 60 | 306 | 8.7 | 13.0 | 0.00 | 0.00 | 0.00 | 100 | 1020.4 |
| 20260902181658 | 59 | 273 | 12.2 | 14.8 | 0.00 | 0.00 | 0.00 | 100 | 1020.5 |
| 20260902181157 | 60 | 268 | 12.2 | 16.5 | 0.00 | 0.00 | 0.00 | 100 | 1020.6 |
| 20260902180657 | 60 | 282 | 15.6 | 21.7 | 0.00 | 0.00 | 0.00 | 93 | 1020.5 |
| 20260902180156 | 62 | 294 | 12.2 | 18.2 | 0.00 | 0.00 | 0.00 | 78 | 1020.1 |
| 20260902175655 | 68 | 273 | 7.0 | 10.4 | 0.00 | 0.00 | 0.00 | 56 | 1019.8 |
| 20260902175154 | 70 | 242 | 4.3 | 4.3 | 0.00 | 0.00 | 0.00 | 48 | 1019.7 |
| 20260902174654 | 71 | 251 | 3.5 | 5.2 | 0.00 | 0.00 | 0.00 | 47 | 1019.6 |
| 20260902174152 | 71 | 249 | 3.5 | 5.2 | 0.00 | 0.00 | 0.00 | 46 | 1019.5 |
| 20260902173651 | 71 | 239 | 3.5 | 5.2 | 0.00 | 0.00 | 0.00 | 46 | 1019.5 |
| 20260902173150 | 71 | 232 | 3.5 | 5.2 | 0.00 | 0.00 | 0.00 | 46 | 1019.5 |
| 20260902172649 | 72 | 261 | 5.2 | 7.0 | 0.00 | 0.00 | 0.00 | 46 | 1019.5 |
| 20260902172148 | 72 | 241 | 5.2 | 7.8 | 0.00 | 0.00 | 0.00 | 45 | 1019.5 |
| 20260902171647 | 72 | 232 | 4.3 | 7.0 | 0.00 | 0.00 | 0.00 | 45 | 1019.4 |
| 20260902171146 | 73 | 225 | 4.3 | 6.1 | 0.00 | 0.00 | 0.00 | 45 | 1019.5 |
| 20260902170645 | 73 | 225 | 5.2 | 6.1 | 0.00 | 0.00 | 0.00 | 45 | 1019.4 |
| 20260902170144 | 73 | 221 | 4.3 | 6.1 | 0.00 | 0.00 | 0.00 | 45 | 1019.5 |
| 20260902165642 | 73 | 237 | 5.2 | 7.0 | 0.00 | 0.00 | 0.00 | 44 | 1019.5 |
| 20260902165141 | 74 | 246 | 5.2 | 7.0 | 0.00 | 0.00 | 0.00 | 44 | 1019.5 |
| 20260902164640 | 74 | 220 | 6.1 | 7.8 | 0.00 | 0.00 | 0.00 | 43 | 1019.5 |
| 20260902164139 | 75 | 223 | 4.3 | 7.0 | 0.00 | 0.00 | 0.00 | 43 | 1019.6 |
| 20260902163638 | 76 | 204 | 3.5 | 5.2 | 0.00 | 0.00 | 0.00 | 42 | 1019.6 |
| 20260902163136 | 75 | 218 | 2.6 | 5.2 | 0.00 | 0.00 | 0.00 | 43 | 1019.6 |
| 20260902162635 | 76 | 232 | 4.3 | 5.2 | 0.00 | 0.00 | 0.00 | 42 | 1019.6 |
| 20260902162134 | 76 | 236 | 3.5 | 5.2 | 0.00 | 0.00 | 0.00 | 41 | 1019.6 |
| 20260902161632 | 77 | 244 | 3.5 | 5.2 | 0.00 | 0.00 | 0.00 | 41 | 1019.6 |
| 20260902161131 | 78 | 251 | 4.3 | 5.2 | 0.00 | 0.00 | 0.00 | 40 | 1019.5 |
| 20260902160629 | 78 | 237 | 4.3 | 7.0 | 0.00 | 0.00 | 0.00 | 40 | 1019.5 |
| 20260902160128 | 79 | 204 | 2.6 | 5.2 | 0.00 | 0.00 | 0.00 | 40 | 1019.6 |
| 20260902155626 | 79 | 225 | 3.5 | 5.2 | 0.00 | 0.00 | 0.00 | 40 | 1019.5 |
| 20260902155125 | 79 | 242 | 5.2 | 7.8 | 0.00 | 0.00 | 0.00 | 40 | 1019.5 |
| 20260902154623 | 79 | 241 | 4.3 | 6.1 | 0.00 | 0.00 | 0.00 | 39 | 1019.5 |
| 20260902154122 | 79 | 257 | 5.2 | 7.8 | 0.00 | 0.00 | 0.00 | 39 | 1019.6 |
| 20260902153620 | 80 | 257 | 2.6 | 4.3 | 0.00 | 0.00 | 0.00 | 40 | 1019.6 |
| 20260902153119 | 79 | 254 | 1.7 | 3.5 | 0.00 | 0.00 | 0.00 | 40 | 1019.6 |
| 20260902152617 | 77 | 269 | 3.5 | 6.1 | 0.00 | 0.00 | 0.00 | 42 | 1019.7 |
| 20260902152116 | 76 | 265 | 4.3 | 7.0 | 0.00 | 0.00 | 0.00 | 42 | 1019.8 |
| 20260902151615 | 76 | 256 | 3.5 | 6.1 | 0.00 | 0.00 | 0.00 | 41 | 1019.9 |
| 20260902151113 | 77 | 257 | 2.6 | 3.5 | 0.00 | 0.00 | 0.00 | 41 | 1020.0 |
| 20260902150612 | 78 | 283 | 3.5 | 5.2 | 0.00 | 0.00 | 0.00 | 40 | 1020.0 |
| 20260902150110 | 79 | 285 | 3.5 | 5.2 | 0.00 | 0.00 | 0.00 | 39 | 1020.0 |
| 20260902145608 | 79 | 272 | 4.3 | 5.2 | 0.00 | 0.00 | 0.00 | 39 | 1020.0 |
| 20260902145107 | 79 | 272 | 7.0 | 10.4 | 0.00 | 0.00 | 0.00 | 39 | 1020.1 |
| 20260902144605 | 80 | 272 | 7.8 | 9.6 | 0.00 | 0.00 | 0.00 | 38 | 1020.0 |
| 20260902144104 | 81 | 241 | 4.3 | 9.6 | 0.00 | 0.00 | 0.00 | 38 | 1020.1 |
| 20260902143602 | 81 | 239 | 3.5 | 6.1 | 0.00 | 0.00 | 0.00 | 38 | 1020.1 |
| 20260902143100 | 81 | 268 | 4.3 | 6.1 | 0.00 | 0.00 | 0.00 | 38 | 1020.2 |
| 20260902142559 | 80 | 251 | 3.5 | 6.1 | 0.00 | 0.00 | 0.00 | 39 | 1020.3 |
| 20260902142057 | 80 | 284 | 5.2 | 9.6 | 0.00 | 0.00 | 0.00 | 38 | 1020.3 |
| 20260902141555 | 80 | 258 | 4.3 | 6.1 | 0.00 | 0.00 | 0.00 | 39 | 1020.3 |
| 20260902141054 | 80 | 253 | 5.2 | 7.8 | 0.00 | 0.00 | 0.00 | 39 | 1020.3 |
| 20260902140552 | 80 | 268 | 7.8 | 11.3 | 0.00 | 0.00 | 0.00 | 38 | 1020.4 |
| 20260902140050 | 80 | 251 | 6.1 | 9.6 | 0.00 | 0.00 | 0.00 | 38 | 1020.4 |
| 20260902135549 | 81 | 222 | 5.2 | 10.4 | 0.00 | 0.00 | 0.00 | 37 | 1020.4 |
| 20260902135047 | 81 | 249 | 5.2 | 8.7 | 0.00 | 0.00 | 0.00 | 38 | 1020.6 |
| 20260902134545 | 82 | 233 | 4.3 | 7.0 | 0.00 | 0.00 | 0.00 | 38 | 1020.5 |
| 20260902134043 | 82 | 236 | 7.0 | 10.4 | 0.00 | 0.00 | 0.00 | 37 | 1020.5 |
| 20260902133541 | 81 | 268 | 5.2 | 9.6 | 0.00 | 0.00 | 0.00 | 38 | 1020.6 |
| 20260902133040 | 80 | 239 | 5.2 | 7.0 | 0.00 | 0.00 | 0.00 | 38 | 1020.6 |